Tracking 33485 objects as of 15-Mar-2026
HD Live streaming from Space Station
objects crossing your sky now

KUIPER-00141

Track KUIPER-00141 now!
10-day predictions
KUIPER-00141 is classified as:


NORAD ID: 65966
Int'l Code: 2025-228V
Perigee: 636.1 km
Apogee: 637.3 km
Inclination: 51.9 °
Period: 97.3 minutes
Semi major axis: 7007 km
RCS: Unknown
Launch date: October 14, 2025
Source: United States (US)
Launch site: AIR FORCE EASTERN TEST RANGE (AFETR)
Your satellite tracking list
Your tracking list is empty




NASA's NSSDC Master Catalog

Two Line Element Set (TLE):
1 65966U 25228V   26073.88288469  .00005221  00000-0  71350-3 0  9991
2 65966  51.9028 317.7251 0000833 114.7530 245.3519 14.79923445 24272
Source of the keplerian elements: AFSPC